Regional Weather Roundup
Issued by NWS

Home | Current Version | Previous Version | Graphics & Text | Print | Product List | Glossary On
Versions: 1 2 3 4 5 6 7 8 9 10 11 12 13 14 15 16 17 18 19 20 21 22 23 24 25 26 27 28 29 30 31 32 33 34 35 36 37 38 39 40 41 42 43 44 45 46 47 48 49 50
000
ASUS43 KOAX 282302
RWRNE

WEATHER ROUNDUP FOR NEBRASKA
NATIONAL WEATHER SERVICE OMAHA NE
600 PM CDT THU JUL 28 2016

NOTES: SATELLITE DATA IS BEING USED TO AUGMENT CLOUD COVER ABOVE
       12000 FEET.
       "FAIR" INDICATES FEW OR NO CLOUDS BELOW 12,000 FEET WITH NO
       SIGNIFICANT WEATHER AND/OR OBSTRUCTIONS TO VISIBILITY.

  * THESE STATIONS DO NOT REPORT WEATHER SUCH AS RAIN...SNOW OR FOG.

NEZ001>004-019>022-054>056-290000-
NEBRASKA PANHANDLE

CITY           SKY/WX    TMP DP  RH WIND       PRES   REMARKS
SCOTTSBLUFF    SUNNY     80  53  39 VRB3      30.13F
ALLIANCE       SUNNY     77  57  50 E7        30.13F
CHADRON        CLOUDY    80  57  45 E12       30.10S
SIDNEY         SUNNY     79  53  40 NE6       30.16S
$$

NEZ057>060-069>072-079>082-290000-
SOUTHWEST NEBRASKA

CITY           SKY/WX    TMP DP  RH WIND       PRES   REMARKS
NORTH PLATTE   SUNNY     75  62  64 N10       30.09F
IMPERIAL       SUNNY     77  59  53 NE8       30.10R
LEXINGTON      CLOUDY    72  67  85 N9        30.05R
MCCOOK         MOSUNNY   74  62  66 E8        30.05S
OGALLALA       SUNNY     79  55  43 SE8       30.11S
$$

NEZ005>010-023>029-035>040-094-290000-
NORTH CENTRAL NEBRASKA

CITY           SKY/WX    TMP DP  RH WIND       PRES   REMARKS
VALENTINE      CLOUDY    76  59  55 CALM      30.08R
AINSWORTH      CLOUDY    74  65  74 E3        30.08S
BROKEN BOW     MOSUNNY   76  66  71 W3        30.06S
O`NEILL        CLOUDY    76  61  58 E3        30.06S
ORD            CLOUDY    77  66  68 NE6       30.04R
THEDFORD       SUNNY     78  58  50 CALM      30.10S
$$

NEZ041-046>049-061>064-073>077-083>087-290000-
SOUTH CENTRAL NEBRASKA

CITY           SKY/WX    TMP DP  RH WIND       PRES   REMARKS
GRAND ISLAND   CLOUDY    75  68  78 CALM      30.03F
AURORA         LGT RAIN  75  68  78 N6        30.02F
HASTINGS       LGT RAIN  76  70  82 NW9       30.06R
HEBRON         MOSUNNY   82  65  55 N10       29.98S
HOLDREGE       CLOUDY    68  66  92 NE7       30.00S
KEARNEY *      CLOUDY    72  12  10 SE9       29.99F
YORK           CLOUDY    77  66  69 NE7       30.01F
$$

NEZ011>018-030>034-042>045-290000-
NORTHEAST NEBRASKA

CITY           SKY/WX    TMP DP  RH WIND       PRES   REMARKS
NORFOLK        CLOUDY    79  58  48 N10       30.02S
ALBION         LGT RAIN  74  63  67 N3        30.04S
BLAIR          MOSUNNY   79  63  57 N9        30.00R
FREMONT        CLOUDY    79  62  55 NW6       30.00S
TEKAMAH        MOSUNNY   81  62  52 N12       29.98S
WAYNE          CLOUDY    77  64  63 N5        30.02S
$$

NEZ050>053-065>068-078-088>093-290000-
SOUTHEAST NEBRASKA

CITY           SKY/WX    TMP DP  RH WIND       PRES   REMARKS
LINCOLN        MOSUNNY   83  64  52 N10       29.99R
OMAHA EPPLEY   PTSUNNY   83  61  47 N10       29.97R
BEATRICE       CLOUDY    84  64  50 NE10      29.97F
FALLS CITY     SUNNY     84  67  56 N8        29.95R
NEBRASKA CITY  MOSUNNY   82  62  51 N6        29.97R
PLATTSMOUTH    MOSUNNY   83  65  55 N5        29.98R
$$

NEZ044-045-051>053-067-290000-
OMAHA AREA

CITY           SKY/WX    TMP DP  RH WIND       PRES   REMARKS
OMAHA EPPLEY   PTSUNNY   83  61  47 N10       29.97R
BLAIR          MOSUNNY   79  63  57 N9        30.00R
FREMONT        CLOUDY    79  62  55 NW6       30.00S
MILLARD        MOSUNNY   82  61  49 N8        29.98R
PLATTSMOUTH    MOSUNNY   83  65  55 N5        29.98R
WAHOO          FAIR      79  61  54 N8        29.99R
$$




USA.gov is the U.S. government's official web portal to all federal, state and local government web resources and services.